小惑星2009 HC82

(343158) 2009 HC82 (2012)

English version
Home page
Updated on February 16, 2014

---------------------------------------------------------------------

・ プロフィール

・ 写真集

・ 軌道要素

The following orbital elements are taken from MPEC 2012-D81:

Epoch 2012 Mar. 14.0 TT = JDT 2456000.5                 MPC
M 300.81892              (2000.0)            P               Q
n   0.24530387     Peri.  298.51661     +0.92039610     -0.02037833
a   2.5273562      Node   294.92954     +0.05997893     -0.97946152
e   0.8074255      Incl.  154.49602     -0.38635935     -0.20059872
P   4.02           H   16.1           G   0.15           U   2
From 65 observations at 3 oppositions, 2009-2012, mean residual 0".37.

・ 星図

・ 光度変化

        H = 16.0  G = 0.15

---------------------------------------------------------------------

軌道要素はMPCのEphemerides and Orbital Elementsに掲載されたものです。
星図はステラナビゲータ Ver.8 (アストロアーツ) で作成したものです。
光度グラフはComet for Windowsで作成したものです。

---------------------------------------------------------------------

Copyright(C) Seiichi Yoshida (comet@aerith.net). All rights reserved.